Find Starlink 31059

NORAD ID: 58596 Int'l Des: 2023-200 Owner: SPXS Country: US Constellation: starlink operational
LEOCIRCULAR

Current View

Loading 3D Globe...

About Starlink 31059

Starlink 31059 (NORAD 58596) is a starlink constellation satellite (v2 mini) launched Dec 19, 2023 by SPXS of US. It operates in LEO, CIRCULAR orbit with a mass of 730.00 kg.

Upcoming Passes

Passes for default location (London). Set your location on the main map for personalized predictions.

Altitude History

Loading altitude history...

Two-Line Element Set

1 58596U 23200H 26262.57747931 -.00000194 00000-0 24572-5 0 9991
2 58596 43.0031 357.1534 0001280 235.0267 125.0465 15.27576606155100
Epoch: Sep 19, 2026 • Age: 27 hours

Current Status

Altitude 482.8 km
Apogee / Perigee N/A
Velocity 7.63 km/s
Sub-Earth Point 14.34°N, 117.65°E
Launch Date Dec 19, 2023
Age 2.7 years
Type internet

Technical Details

Classification Payload
Mass 730.00 kg
Dry Mass 700.00 kg
Length 0.30 m
Span 29.00 m
Shape ? Box + pan
Manufacturer SPXS
Bus Type Starlink V2M
Phase Status In Orbit
Owner/State SPXS/US

Most Searched